Stations météo

Publicité
Gourdon, France (7535): Température de l'air & dewpoint: 14.07.2018 01:00:00 - 20.07.2018 01:00:00 (CEST)Gourdon, France (7535): Température de l'air 5cm: 14.07.2018 01:00:00 - 20.07.2018 01:00:00 (CEST)Gourdon, France (7535): Température de l'air -20cm & Température de l'air -100cm: 14.07.2018 01:00:00 - 20.07.2018 01:00:00 (CEST)Gourdon, France (7535): Vitesse du vent & gusts: 14.07.2018 01:00:00 - 20.07.2018 01:00:00 (CEST)Gourdon, France (7535): Direction du vent: 14.07.2018 01:00:00 - 20.07.2018 01:00:00 (CEST)Gourdon, France (7535): reduced air pressure: 14.07.2018 01:00:00 - 20.07.2018 01:00:00 (CEST)Gourdon, France (7535): visibility: 14.07.2018 01:00:00 - 20.07.2018 01:00:00 (CEST)Gourdon, France (7535): Ensoleillement: 14.07.2018 01:00:00 - 20.07.2018 01:00:00 (CEST)Gourdon, France (7535): Quantités de précipitations: 14.07.2018 01:00:00 - 20.07.2018 01:00:00 (CEST)
Date & Time tt [°C] td [°C] tt 5cm [°C] tt -20cm [°C] tt -100cm [°C] ff [km/h] ff [knt] fx [km/h] fx [knt] dd ppp [hPa] vv [km] sd [min] rr [mm]
20.07.2018 01:00:00 22,8 17,5 19,5 25,7 21,4 6 3 16 8 WNW 1014,6 20 0 0,0
20.07.2018 00:00:00 22,6 17,5 19,6 25,9 21,4 0 0 7 4 N 1014,3 20 0 0,0
19.07.2018 23:00:00 24,6 17,3 20,7 26,0 21,4 0 0 9 5 N 1014,0 20 0 0,0
19.07.2018 22:00:00 25,8 17,2 21,8 26,0 21,4 3 1 11 6 W 1013,5 3,7 0 0,0
19.07.2018 21:00:00 28,2 17,1 25,9 26,1 21,4 6 4 15 8 WNW 1012,7 20 49 0,0
19.07.2018 20:00:00 31,7 16,4 30,8 25,9 21,3 5 3 13 7 W 1012,1 20 60 0,0
19.07.2018 19:00:00 32,5 15,9 33,9 25,6 21,4 0 0 12 6 N 1012,1 20 58 0,0
19.07.2018 18:00:00 32,4 16,3 41,2 25,2 21,4 6 3 15 8 WSW 1012,4 20 60 0,0
19.07.2018 17:00:00 31,6 16,0 42,0 24,7 21,4 6 4 15 8 S 1012,9 20 60 0,0
19.07.2018 16:00:00 30,7 17,0 41,1 24,2 21,4 6 3 16 8 NNW 1013,4 20 60 0,0
19.07.2018 15:00:00 30,3 17,4 40,7 23,7 21,4 5 3 14 8 NNW 1013,8 20 60 0,0
19.07.2018 14:00:00 29,1 17,6 40,1 23,3 21,4 2 1 14 8 E 1014,5 20 60 0,0
19.07.2018 13:00:00 27,9 17,4 38,1 23,0 21,4 6 4 13 7 NW 1015,2 20 60 0,0
19.07.2018 12:00:00 26,9 17,7 34,4 22,7 21,4 5 3 10 5 NNW 1015,5 20 60 0,0
19.07.2018 11:00:00 25,4 17,6 31,9 22,7 21,4 2 1 9 5 WNW 1015,9 20 60 0,0
19.07.2018 10:00:00 23,1 17,3 26,3 22,8 21,4 0 0 9 5 N 1016,2 20 60 0,0
19.07.2018 09:00:00 21,3 16,7 21,6 22,9 21,4 2 1 6 3 WSW 1016,2 20 60 0,0
19.07.2018 08:00:00 18,4 15,8 15,4 23,1 21,4 0 0 10 5 N 1016,2 20 60 0,0
19.07.2018 07:00:00 15,5 14,2 14,0 23,3 21,4 3 2 5 3 ESE 1016,4 20 9 0,0
19.07.2018 06:00:00 15,3 14,2 14,2 23,5 21,4 4 2 8 4 ESE 1016,4 20 0 0,0
19.07.2018 05:00:00 15,8 14,5 14,7 23,7 21,4 4 2 12 6 SSE 1016,2 20 0 0,0
19.07.2018 04:00:00 16,7 14,7 15,4 23,9 21,3 7 4 12 6 SE 1016,1 20 0 0,0
19.07.2018 03:00:00 17,5 14,6 16,0 24,1 21,4 5 3 14 8 ESE 1016,6 20 0 0,0
19.07.2018 02:00:00 18,1 15,2 16,2 24,3 21,3 6 3 9 5 SE 1017,1 20 0 0,0
19.07.2018 01:00:00 19,2 15,5 17,5 24,5 21,3 6 3 32 18 S 1017,0 20 0 0,0
19.07.2018 00:00:00 19,5 15,6 18,7 24,7 21,4 8 4 17 9 S 1016,6 20 0 0,0
18.07.2018 23:00:00 20,9 15,0 18,7 24,8 21,3 4 2 12 6 SW 1015,9 20 0 0,0
18.07.2018 22:00:00 21,5 14,9 19,4 25,0 21,4 5 3 18 10 N 1015,9 20 10 0,0
18.07.2018 21:00:00 23,0 15,1 23,0 25,1 21,4 5 3 15 8 ESE 1015,2 20 39 0,0
18.07.2018 20:00:00 24,2 15,4 23,1 25,1 21,4 8 4 25 13 SSE 1015,0 20 0 0,0
18.07.2018 19:00:00 25,5 14,6 24,3 25,0 21,4 14 7 29 15 NNW 1014,7 20 0 0,0
18.07.2018 18:00:00 27,5 13,8 25,9 24,8 21,4 8 4 16 9 NNW 1013,1 20 0 0,0
18.07.2018 17:00:00 29,3 14,3 31,9 24,4 21,4 9 5 24 13 N 1012,5 20 32 0,0
18.07.2018 16:00:00 30,6 15,1 41,4 23,9 21,4 13 7 24 13 N 1012,8 20 60 0,0
18.07.2018 15:00:00 30,1 13,8 39,8 23,4 21,4 11 6 24 13 N 1013,1 20 60 0,0
18.07.2018 14:00:00 29,0 13,2 38,5 23,0 21,4 13 7 26 14 NE 1013,7 20 60 0,0
18.07.2018 13:00:00 28,3 15,6 36,8 22,7 21,4 10 6 24 13 ENE 1014,4 20 60 0,0
18.07.2018 12:00:00 26,6 15,3 33,5 22,5 21,4 13 7 24 13 ENE 1015,1 20 60 0,0
18.07.2018 11:00:00 25,2 15,2 31,6 22,5 21,4 10 5 17 9 ENE 1015,8 20 60 0,0
18.07.2018 10:00:00 21,4 17,0 26,5 22,5 21,4 6 3 11 6 N 1016,8 20 60 0,0
18.07.2018 09:00:00 19,2 15,7 20,5 22,7 21,4 3 2 5 3 N 1017,2 20 60 0,0
18.07.2018 08:00:00 17,4 15,4 14,5 22,9 21,3 0 0 4 2 N 1017,2 20 60 0,0
18.07.2018 07:00:00 14,6 13,8 12,7 23,1 21,3 0 0 7 4 N 1017,5 20 10 0,0
18.07.2018 06:00:00 14,7 13,9 12,9 23,4 21,3 0 0 4 2 N 1017,3 19 0 0,0
18.07.2018 05:00:00 14,9 13,8 13,2 23,6 21,3 0 0 5 3 N 1017,3 20 0 0,0
18.07.2018 04:00:00 15,5 13,9 13,6 23,9 21,3 0 0 5 3 N 1017,5 20 0 0,0
18.07.2018 03:00:00 16,0 13,5 14,2 24,1 21,3 0 0 5 3 N 1017,9 20 0 0,0
18.07.2018 02:00:00 16,2 14,0 14,6 24,4 21,3 0 0 6 3 N 1018,2 20 0 0,0
18.07.2018 01:00:00 17,1 14,2 15,4 24,6 21,3 4 2 10 5 SE 1018,4 20 0 0,0
18.07.2018 00:00:00 18,0 14,7 16,2 24,8 21,4 3 1 8 4 ESE 1018,5 20 0 0,0
17.07.2018 23:00:00 19,1 15,4 17,0 25,0 21,4 2 1 9 5 E 1018,3 20 0 0,0
17.07.2018 22:00:00 22,5 14,3 18,3 25,1 21,3 5 3 7 4 NE 1017,7 20 0 0,0
17.07.2018 21:00:00 24,3 15,0 21,8 25,1 21,4 3 2 10 5 NNE 1017,2 20 54 0,0
17.07.2018 20:00:00 26,1 14,5 27,6 25,0 21,4 7 4 13 7 N 1017,0 20 53 0,0
17.07.2018 19:00:00 26,2 15,6 30,0 24,8 21,4 6 4 19 11 NE 1017,2 20 54 0,0
17.07.2018 18:00:00 27,5 14,8 37,2 24,5 21,4 7 4 17 9 W 1017,5 20 60 0,0
17.07.2018 17:00:00 26,1 14,9 31,6 24,1 21,4 7 4 18 10 N 1018,3 20 36 0,0
17.07.2018 16:00:00 26,5 14,3 33,5 23,7 21,4 4 2 15 8 NNE 1018,6 20 52 0,0
17.07.2018 15:00:00 25,1 14,5 35,5 23,3 21,4 7 4 18 10 N 1019,1 20 51 0,0
17.07.2018 14:00:00 24,2 15,4 29,1 23,0 21,4 6 3 17 9 NNE 1019,6 20 57 0,0
17.07.2018 13:00:00 22,6 15,2 27,5 22,7 21,4 3 2 16 9 W 1020,5 20 33 0,0
17.07.2018 12:00:00 21,8 16,1 26,3 22,6 21,4 7 4 16 9 NE 1020,7 20 12 0,0
17.07.2018 11:00:00 20,8 15,1 25,3 22,6 21,4 5 3 14 8 N 1020,9 20 28 0,0
17.07.2018 10:00:00 20,7 15,9 21,2 22,6 21,5 4 2 8 4 NE 1020,7 20 31 0,0
17.07.2018 09:00:00 18,0 16,2 18,5 22,7 21,5 2 1 5 3 NNW 1021,1 20 0 0,0
17.07.2018 08:00:00 17,1 16,3 17,4 22,8 21,4 0 0 4 2 N 1021,1 16 0 0,0
17.07.2018 07:00:00 16,5 16,0 15,7 23,0 21,4 0 0 6 3 N 1020,9 13 2 0,0
17.07.2018 06:00:00 16,0 15,4 14,5 23,2 21,5 2 1 4 2 WSW 1020,6 9 0 0,0
17.07.2018 05:00:00 16,0 15,0 14,7 23,4 21,5 0 0 10 5 N 1020,3 11 0 0,0
17.07.2018 04:00:00 16,7 15,4 16,0 23,5 21,5 4 2 12 7 W 1020,4 16 0 0,0
17.07.2018 03:00:00 17,7 15,7 17,0 23,7 21,5 4 2 14 8 W 1020,6 20 0 0,0
17.07.2018 02:00:00 18,2 15,8 17,2 23,9 21,5 8 5 22 12 WNW 1020,4 20 0 0,0
17.07.2018 01:00:00 19,2 16,2 18,5 24,0 21,5 8 5 24 13 WNW 1020,2 20 0 0,0
17.07.2018 00:00:00 20,2 16,4 19,8 24,1 21,4 9 5 28 15 WNW 1019,6 20 0 0,0
16.07.2018 23:00:00 20,9 16,3 20,0 24,2 21,5 9 5 23 12 WNW 1019,0 20 0 0,0
16.07.2018 22:00:00 21,4 16,6 20,4 24,3 21,5 8 4 24 13 WNW 1018,0 19 6 0,0
16.07.2018 21:00:00 22,7 17,2 22,7 24,3 21,5 7 4 15 8 W 1017,0 20 27 0,0
16.07.2018 20:00:00 23,6 17,3 25,1 24,2 21,5 7 4 18 10 WNW 1016,4 20 37 0,0
16.07.2018 19:00:00 22,6 15,9 25,2 24,2 21,5 8 4 20 11 WNW 1016,2 20 4 0,0
16.07.2018 18:00:00 22,4 16,4 24,3 24,1 21,5 9 5 23 13 WNW 1016,0 20 0 0,0
16.07.2018 17:00:00 21,6 15,9 23,0 23,9 21,5 10 6 26 14 WNW 1015,8 20 0 0,0
16.07.2018 16:00:00 22,7 16,5 26,6 23,7 21,5 6 3 16 9 WNW 1015,3 20 16 0,0
16.07.2018 15:00:00 22,8 16,8 28,3 23,5 21,5 7 4 18 10 W 1015,2 20 17 0,0
16.07.2018 14:00:00 22,0 16,7 25,6 23,3 21,5 6 3 21 11 W 1015,6 20 0 0,0
16.07.2018 13:00:00 22,1 15,9 26,5 23,2 21,5 9 5 20 11 WNW 1015,1 20 1 0,0
16.07.2018 12:00:00 21,3 17,3 22,5 23,2 21,5 8 4 23 12 WNW 1015,2 20 43 0,0
16.07.2018 11:00:00 19,2 16,4 19,7 23,4 21,5 6 3 14 8 W 1015,2 20 0 0,0
16.07.2018 10:00:00 17,6 16,5 16,6 23,6 21,4 5 3 17 9 WNW 1015,1 20 0 0,0
16.07.2018 09:00:00 16,5 15,4 16,0 24,0 21,4 6 4 19 11 S 1014,8 18 0 0,0
16.07.2018 08:00:00 16,4 15,1 14,9 24,5 21,4 5 3 27 14 WNW 1014,4 20 0 2,0
16.07.2018 07:00:00 16,2 13,5 13,9 25,0 21,4 6 3 54 29 W 1014,2 16 0 25,9
16.07.2018 06:00:00 19,3 15,2 18,4 25,2 21,4 9 5 37 20 NNW 1014,0 20 0 0,0
16.07.2018 05:00:00 20,3 17,5 17,7 25,4 21,4 13 7 27 14 NW 1013,0 20 0 0,0
16.07.2018 04:00:00 19,8 17,2 17,7 25,6 21,4 2 1 19 10 SW 1013,3 20 0 0,0
16.07.2018 03:00:00 20,5 17,3 18,1 25,8 21,4 3 2 11 6 W 1013,3 20 0 0,0
16.07.2018 02:00:00 20,6 16,6 18,2 26,0 21,4 5 3 12 6 SSW 1013,4 20 0 0,0
16.07.2018 01:00:00 20,7 16,1 18,8 26,2 21,3 10 5 13 7 SE 1013,0 20 0 0,0
16.07.2018 00:00:00 22,2 17,1 19,2 26,4 21,3 3 2 12 6 WSW 1013,6 20 0 0,0
15.07.2018 23:00:00 23,8 17,1 19,4 26,5 21,3 2 1 7 4 WNW 1013,6 20 0 0,0
15.07.2018 22:00:00 24,9 17,6 20,6 26,6 21,3 3 2 5 3 ESE 1013,1 20 12 0,0
15.07.2018 21:00:00 27,6 16,9 26,1 26,6 21,3 3 1 9 5 N 1012,2 20 46 0,0
15.07.2018 20:00:00 27,8 16,4 27,5 26,5 21,3 3 2 17 9 N 1012,0 20 0 0,0
15.07.2018 19:00:00 28,9 16,1 29,6 26,3 21,3 12 7 26 14 NNW 1011,7 20 16 0,0
15.07.2018 18:00:00 32,5 16,8 36,5 25,9 21,3 5 3 21 11 WNW 1011,6 20 45 0,0
15.07.2018 17:00:00 32,1 16,4 38,2 25,5 21,3 3 2 19 10 SW 1011,7 20 50 0,0
15.07.2018 16:00:00 31,9 15,8 44,6 25,0 21,3 6 3 20 11 NW 1012,1 20 60 0,0
15.07.2018 15:00:00 31,0 15,8 38,7 24,7 21,3 8 5 16 9 N 1012,8 19 47 0,0
15.07.2018 14:00:00 31,0 16,2 41,5 24,3 21,3 6 3 12 7 ENE 1013,5 20 55 0,0
15.07.2018 13:00:00 30,0 16,1 39,8 24,1 21,3 5 3 13 7 SSW 1014,0 19 60 0,0
15.07.2018 12:00:00 28,5 15,1 37,7 23,9 21,3 4 2 13 7 E 1014,5 20 60 0,0
15.07.2018 11:00:00 27,3 16,3 32,5 23,9 21,3 2 1 13 7 ENE 1014,8 20 60 0,0
15.07.2018 10:00:00 24,8 16,8 28,9 24,0 21,2 5 3 14 7 SSE 1015,2 20 60 0,0
15.07.2018 09:00:00 22,8 17,3 20,4 24,2 21,3 2 1 24 13 ESE 1015,5 20 32 0,0
15.07.2018 08:00:00 19,5 15,4 18,5 24,3 21,2 7 4 12 6 SSE 1015,2 20 24 0,0
15.07.2018 07:00:00 19,1 15,0 16,8 24,5 21,2 8 4 14 8 S 1015,5 20 11 0,0
15.07.2018 06:00:00 19,3 14,5 15,6 24,7 21,2 6 3 11 6 N 1014,9 20 0 0,0
15.07.2018 05:00:00 20,7 14,6 18,1 24,8 21,2 8 4 14 8 SE 1014,5 20 0 0,0
15.07.2018 04:00:00 20,8 14,4 18,4 25,1 21,2 8 5 29 16 S 1015,1 20 0 0,0
15.07.2018 03:00:00 19,7 13,6 18,3 25,2 21,2 0 0 9 5 N 1015,0 20 0 0,0
15.07.2018 02:00:00 19,6 13,5 18,2 25,5 21,2 5 3 9 5 SSE 1015,4 20 0 0,0
15.07.2018 01:00:00 20,1 13,3 17,4 25,7 21,2 2 1 5 3 SSE 1015,7 12 0 0,0
15.07.2018 00:00:00 22,0 12,5 17,4 25,8 21,2 3 2 6 4 N 1015,3 20 0 0,0
14.07.2018 23:00:00 23,0 14,0 18,2 26,0 21,2 0 0 7 4 N 1015,3 20 0 0,0
14.07.2018 22:00:00 25,6 13,1 19,7 26,0 21,2 5 3 10 5 N 1014,8 20 0 0,0
14.07.2018 21:00:00 27,7 13,6 25,9 26,0 21,2 6 4 16 9 N 1014,1 20 53 0,0
14.07.2018 20:00:00 30,4 14,5 31,9 25,8 21,2 8 5 20 11 NNW 1013,8 20 60 0,0
14.07.2018 19:00:00 31,1 13,8 33,9 25,5 21,2 13 7 20 11 NNW 1013,7 20 60 0,0
14.07.2018 18:00:00 32,0 14,2 42,5 25,1 21,2 7 4 18 10 NNW 1014,0 20 60 0,0
14.07.2018 17:00:00 31,9 14,5 44,9 24,7 21,2 9 5 20 11 N 1014,3 20 60 0,0
14.07.2018 16:00:00 32,0 14,2 44,7 24,3 21,2 4 2 19 10 SSE 1014,8 19 60 0,0
14.07.2018 15:00:00 30,7 13,9 40,2 24,0 21,2 7 4 16 9 NNE 1015,5 19 60 0,0
14.07.2018 14:00:00 29,5 14,9 37,8 23,7 21,2 8 4 15 8 N 1016,0 20 25 0,0
14.07.2018 13:00:00 28,8 13,9 38,3 23,4 21,2 8 4 16 8 WNW 1016,2 20 42 0,0
14.07.2018 12:00:00 27,8 15,5 35,9 23,3 21,2 5 3 11 6 W 1016,6 20 60 0,0
14.07.2018 11:00:00 25,5 15,8 31,3 23,3 21,2 4 2 13 7 WNW 1016,9 20 60 0,0
14.07.2018 10:00:00 23,2 15,8 25,6 23,3 21,2 6 3 12 6 NW 1017,0 20 49 0,0
14.07.2018 09:00:00 20,2 14,8 18,7 23,5 21,2 0 0 10 5 N 1017,4 20 7 0,0
14.07.2018 08:00:00 17,9 13,4 16,3 23,6 21,2 6 3 11 6 E 1017,4 20 2 0,0
14.07.2018 07:00:00 16,0 13,3 14,4 23,9 21,2 6 3 10 6 SSE 1018,1 20 0 0,0
14.07.2018 06:00:00 16,0 13,1 14,3 24,0 21,2 3 2 10 5 S 1018,2 20 0 0,0
14.07.2018 05:00:00 17,2 13,1 14,9 24,2 21,2 2 1 8 4 SSE 1017,8 20 0 0,0
14.07.2018 04:00:00 17,7 13,0 15,3 24,4 21,2 0 0 6 3 N 1017,9 20 0 0,0
14.07.2018 03:00:00 18,7 12,4 16,5 24,6 21,1 3 1 11 6 E 1017,8 20 0 0,0
14.07.2018 02:00:00 18,4 12,4 17,1 24,8 21,1 6 4 12 6 ESE 1018,5 20 0 0,0
14.07.2018 01:00:00 18,8 12,5 16,9 25,0 21,1 3 2 11 6 SE 1018,7 20 0 0,0

tt = Température de l'air
td = dewpoint
tt 5cm = Température de l'air 5cm
tt -20cm = Température de l'air -20cm
tt -100cm = Température de l'air -100cm
ff = Vitesse du vent
fx = gusts
dd = Direction du vent
ppp = reduced air pressure
vv = visibility
sd = Ensoleillement
rr = Quantités de précipitations

stations d'obs. à proximité